www.pogodaiklimat.ru

Погода и климат >> Архив погоды >> Австралия >> Западная Австралия >> Саутерн Кросс


ПОГОДА в Саутерн Кросс

  • Прогноз погоды в Саутерн Кросс
  • Монитор погоды в Саутерн Кросс

АРХИВ ПОГОДЫ в Саутерн Кросс

Время (UTC), дата Ветер
(напр.,м/с)
 
Видим.   Явления Облачность Т
(С)
Тd
(С)
f
(%)
Тe
(С)
Тes
(С)
Комфортность P
(гПа)
Po
(гПа)
Тmin
(С)
Tmax
(С)
R
(мм)
R24
(мм)
S
(см)
01 12.03 В 4 н/о н/о +23.1 +11.8 49 +26 +26 жарко 1016.4 976.8
03 12.03 В 3 н/о н/о +28.9 +12.3 36 +30 +30 жарко 1015.0 975.4
04 12.03 С 4 н/о н/о +30.9 +12.8 33 +32 +32 жарко 1013.8 974.3
06 12.03 СВ 2 н/о н/о +34.7 +13.0 27 +35 +35 очень
жарко
1012.1 972.6
07 12.03 З 3 н/о н/о +35.7 +10.0 21 +35 +35 очень
жарко
1011.6 972.1
09 12.03 ЮЗ 5 н/о н/о +35.4 +6.6 17 +33 +33 жарко 1011.8 972.3
10 12.03 ЮЗ 6 н/о 10/0
[]
+33.9 +8.5 21 +32 +32 жарко 1012.1 972.6
12 12.03 ЮЗ 7 н/о н/о +31.2 +9.4 26 +31 +31 жарко 1014.1 974.5
13 12.03 С 3 н/о 10/0
[]
+29.4 +10.5 31 +30 +30 жарко 1012.7 973.2 +37.4
15 12.03 ЮВ 1 н/о н/о +27.7 +9.0 31 +28 +28 жарко 1011.2 971.8
16 12.03 штиль 0 н/о 10/0
[]
+26.3 +9.2 34 +27 +27 жарко 1011.1 971.7
18 12.03 Ю 1 н/о н/о +22.9 +8.2 39 +24 +24 комфорт 1011.2 971.8
19 12.03 Ю 3 н/о н/о +20.9 +8.5 45 +23 +23 комфорт 1012.1 972.6
21 12.03 Ю 3 н/о н/о +20.6 +8.9 47 +22 +22 комфорт 1012.7 973.2
22 12.03 Ю 4 н/о в посл. час дождь со снегом {туман} 5/5 1000 м
[]
+21.0 +11.6 55 +23 +23 комфорт 1013.1 973.6
00 13.03 ЮВ 4 н/о н/о +23.8 +11.5 46 +25 +25 комфорт 1013.9 974.4
01 13.03 Ю 2 н/о {туман} н/о +26.1 +11.1 39 +27 +27 жарко 1014.3 974.7 +19.9
03 13.03 Ю 3 н/о н/о +31.9 +10.0 26 +31 +31 жарко 1013.3 973.8
04 13.03 ЮЗ 5 н/о н/о +34.8 +9.9 22 +34 +34 очень
жарко
1012.2 972.7
06 13.03 СЗ 7 н/о н/о +36.4 +9.1 19 +35 +35 очень
жарко
1011.3 971.9
07 13.03 ЮЗ 7 н/о 8/0
[]
+34.8 +7.8 19 +33 +34 жарко 1011.2 971.8
09 13.03 Ю 7 н/о н/о +33.9 +7.0 19 +32 +32 жарко 1011.8 972.3
10 13.03 Ю 7 н/о н/о +32.4 +5.1 18 +30 +30 жарко 1012.3 972.8
12 13.03 Ю 6 н/о н/о +28.9 +6.9 25 +28 +28 жарко 1013.8 974.3
13 13.03 Ю 6 н/о 9/0
[]
+27.5 +7.4 28 +27 +27 жарко 1014.6 975.0 +36.9
15 13.03 ЮВ 8 н/о н/о +24.2 +10.8 43 +25 +25 комфорт 1015.7 976.1
16 13.03 ЮВ 8 н/о 6/0
[]
+21.9 +11.3 51 +24 +24 комфорт 1016.2 976.6
18 13.03 ЮВ 8 н/о н/о +18.5 +10.8 61 +18 +18 1017.0 977.3
19 13.03 ЮВ 7 н/о н/о +17.3 +11.1 67 +16 +16 1016.9 977.2
21 13.03 ЮВ 5 н/о н/о +15.8 +11.0 73 +15 +15 1017.1 977.4
22 13.03 ЮВ 5 н/о н/о +15.4 +10.8 74 +14 +14 1017.5 977.8
00 14.03 В 5 н/о н/о +18.8 +10.9 60 +19 +19 1018.1 978.4
01 14.03 В 5 н/о н/о +21.5 +9.7 47 +23 +23 комфорт 1018.3 978.6 +15.4
03 14.03 В 6 н/о н/о +26.8 +7.3 29 +26 +26 жарко 1017.5 977.8
04 14.03 В 5 н/о н/о +29.5 +7.4 25 +29 +29 жарко 1016.3 976.7
06 14.03 ЮВ 6 н/о н/о +31.3 +8.3 24 +30 +30 жарко 1014.8 975.2
07 14.03 ЮВ 5 н/о н/о +32.3 +7.9 22 +31 +31 жарко 1013.9 974.4
09 14.03 В 5 н/о н/о +32.0 +7.0 21 +30 +30 жарко 1013.1 973.6
10 14.03 В 6 н/о н/о +30.7 +7.2 23 +29 +29 жарко 1013.3 973.8
12 14.03 В 4 н/о н/о +27.3 +6.7 27 +27 +27 жарко 1014.7 975.1
13 14.03 В 5 н/о н/о +26.6 +7.1 29 +26 +26 жарко 1015.1 975.5
15 14.03 В 4 н/о н/о +24.1 +8.1 36 +25 +25 комфорт 1014.8 975.2
16 14.03 В 2 н/о н/о +22.7 +7.7 38 +24 +24 комфорт 1014.8 975.2
18 14.03 ЮВ 3 н/о н/о +20.4 +9.0 48 +22 +22 комфорт 1013.9 974.4
19 14.03 ЮВ 4 н/о н/о +19.6 +10.0 54 +21 +21 комфорт 1013.5 974.0
21 14.03 В 4 н/о н/о +20.8 +10.0 50 +23 +23 комфорт 1013.3 973.8
22 14.03 СВ 2 н/о н/о +19.9 +9.5 51 +22 +22 комфорт 1013.7 974.2
00 15.03 В 6 н/о н/о +24.7 +10.9 42 +26 +26 жарко 1013.8 974.3
01 15.03 СВ 5 н/о 3/0
[]
+25.5 +12.0 43 +27 +31 жарко 1013.7 974.2
03 15.03 СВ 6 н/о н/о +31.7 +13.5 33 +33 +33 жарко 1012.4 972.9
04 15.03 С 6 н/о 3/0
[]
+32.6 +14.7 34 +34 +40 очень
жарко
1011.3 971.9
06 15.03 С 6 н/о н/о +35.6 +13.7 27 +36 +36 очень
жарко
1009.3 969.9
07 15.03 С 5 н/о 1/0 2000 м
[]
+34.6 +13.4 28 +35 +40 очень
жарко
1007.9 968.6
09 15.03 В 7 н/о н/о +27.6 +17.5 54 +32 +32 очень
душно
1007.7 968.4
10 15.03 С 9 3000 м слаб. ливневой дождь со снегом {туман} 8/8 600 м
[]
+21.0 +18.2 84 +25 +25 комфорт 1012.2 972.7
12 15.03 СВ 3 н/о н/о +21.5 +17.9 80 +26 +26 душно 1013.9 974.4
13 15.03 С 6 н/о в посл. час дождь со снегом {туман} 10/0
[]
+20.9 +17.9 83 +25 +25 комфорт 1013.3 973.8 +36.6
15 15.03 С 4 н/о н/о +20.3 +17.9 86 +24 +24 комфорт 1011.8 972.3
16 15.03 С 2 н/о 9/0
[]
+20.1 +17.7 86 +24 +24 комфорт 1011.5 972.0
18 15.03 В 2 н/о н/о +19.1 +16.7 86 +21 +21 комфорт 1011.3 971.9
19 15.03 ЮВ 2 н/о н/о +18.5 +16.8 90 +20 +20 1011.1 971.7
21 15.03 ЮВ 2 н/о н/о +17.9 +16.8 93 +19 +19 1011.5 972.0
22 15.03 Ю 2 н/о н/о +17.5 +16.7 95 +18 +18 1012.0 972.5
00 16.03 В 4 н/о н/о +22.2 +18.2 78 +27 +27 душно 1013.4 973.9
01 16.03 СВ 5 н/о н/о +24.6 +17.6 65 +29 +29 душно 1013.7 974.2 +17.4
03 16.03 С 4 н/о н/о +28.3 +17.2 51 +32 +32 душно 1013.2 973.7
04 16.03 С 4 н/о н/о +28.9 +16.1 46 +32 +32 душно 1012.8 973.3
06 16.03 СЗ 3 н/о н/о +31.1 +12.9 33 +32 +32 жарко 1011.1 971.7
07 16.03 В 2 н/о н/о +31.4 +13.2 33 +32 +32 жарко 1010.5 971.1
09 16.03 СЗ 2 н/о н/о +32.2 +10.3 26 +32 +32 жарко 1010.4 971.0
10 16.03 штиль 0 н/о н/о +31.5 +9.1 25 +31 +31 жарко 1010.8 971.4
12 16.03 Ю 2 н/о н/о +26.3 +14.7 49 +29 +29 жарко 1012.2 972.7
13 16.03 ЮВ 4 н/о н/о +25.7 +15.4 53 +29 +29 душно 1012.7 973.2 +33.3
15 16.03 ЮВ 6 н/о н/о +24.9 +15.8 57 +28 +28 жарко 1012.9 973.4
16 16.03 ЮВ 6 н/о н/о +23.7 +16.0 62 +27 +27 жарко 1013.1 973.6
18 16.03 ЮВ 6 н/о н/о +21.3 +16.0 72 +25 +25 комфорт 1013.1 973.6
19 16.03 ЮВ 5 н/о н/о +20.2 +16.2 78 +23 +23 комфорт 1013.3 973.8
21 16.03 В 5 н/о н/о +19.0 +16.2 84 +20 +20 1013.8 974.3
22 16.03 В 5 н/о н/о +18.6 +16.2 86 +19 +19 1014.2 974.6
00 17.03 В 4 н/о н/о +20.2 +16.6 80 +23 +23 комфорт 1015.1 975.5
01 17.03 В 4 н/о н/о +22.7 +16.7 69 +27 +27 душно 1015.2 975.6 +18.7
03 17.03 С 6 н/о н/о +30.8 +14.8 38 +33 +33 душно 1013.9 974.4
04 17.03 СВ 6 н/о н/о +32.3 +14.0 33 +34 +34 душно 1013.2 973.7
06 17.03 В 4 н/о н/о +33.1 +11.6 27 +33 +33 жарко 1011.1 971.7
07 17.03 В 6 н/о н/о +33.1 +11.0 26 +33 +33 жарко 1010.3 970.9
09 17.03 СВ 5 н/о н/о +28.8 +12.2 36 +30 +30 жарко 1011.2 971.8
10 17.03 З 5 н/о н/о +26.8 +14.5 47 +29 +29 жарко 1012.4 972.9
12 17.03 В 3 н/о н/о +25.0 +15.6 56 +28 +28 жарко 1013.7 974.2
13 17.03 ЮВ 4 н/о н/о +24.9 +15.5 56 +28 +28 жарко 1013.8 974.3 +34.6
15 17.03 В 3 н/о н/о +23.3 +15.6 62 +28 +28 душно 1014.2 974.6
16 17.03 ЮВ 3 н/о н/о +23.1 +16.2 65 +28 +28 душно 1013.7 974.2
18 17.03 В 4 н/о н/о +23.0 +14.3 58 +27 +27 душно 1012.9 973.4
19 17.03 В 6 н/о н/о +22.9 +13.4 55 +26 +26 жарко 1013.0 973.5
21 17.03 СВ 5 н/о н/о +21.5 +14.6 65 +25 +25 комфорт 1013.5 974.0
22 17.03 СВ 3 н/о н/о +20.5 +14.8 70 +24 +24 комфорт 1014.3 974.7
00 18.03 СВ 6 н/о н/о +25.2 +15.2 54 +28 +28 жарко 1015.0 975.4
01 18.03 СВ 6 н/о н/о +28.3 +14.5 43 +31 +31 душно 1015.3 975.7 +20.0
03 18.03 С 5 н/о н/о +31.5 +12.8 32 +32 +32 жарко 1014.2 974.6
04 18.03 С 4 н/о н/о +32.7 +11.3 27 +33 +33 жарко 1013.0 973.5
06 18.03 ЮВ 2 н/о н/о +34.4 +10.3 23 +34 +34 очень
жарко
1011.0 971.6
07 18.03 В 4 н/о н/о +33.9 +9.9 23 +33 +33 жарко 1010.3 970.9
09 18.03 В 6 н/о н/о +33.5 +9.5 23 +33 +33 жарко 1010.1 970.7
10 18.03 В 4 н/о н/о +32.1 +9.6 25 +31 +31 жарко 1010.5 971.1
12 18.03 Ю 6 н/о н/о +27.6 +13.9 43 +30 +30 жарко 1012.7 973.2
13 18.03 В 4 н/о н/о +28.1 +9.9 32 +28 +28 жарко 1012.9 973.4 +34.8
15 18.03 В 4 н/о н/о +27.2 +9.5 33 +28 +28 жарко 1012.3 972.8
16 18.03 В 6 н/о н/о +26.8 +9.6 34 +27 +27 жарко 1012.2 972.7
18 18.03 СВ 6 н/о н/о +25.8 +11.2 40 +27 +27 жарко 1011.9 972.4
19 18.03 СВ 6 н/о н/о +25.3 +11.8 43 +27 +27 жарко 1011.8 972.3
21 18.03 СВ 4 н/о н/о +23.7 +12.4 49 +26 +26 жарко 1012.5 973.0
22 18.03 СВ 6 н/о н/о +23.6 +12.3 49 +25 +25 комфорт 1012.5 973.0
00 19.03 В 4 н/о н/о +23.3 +12.9 52 +26 +26 жарко 1013.8 974.3
01 19.03 СВ 5 н/о н/о +24.6 +13.5 50 +27 +27 жарко 1013.9 974.4 +23.3

 

Местоположение метеостанции Саутерн Кросс (Западная Австралия, Австралия): широта -31.23 долгота 119.35 высота над уровнем моря 348 м.

В архиве по умолчанию представлена погода в Саутерн Кросс за последнюю неделю. Архивные данные за месяц целиком и за предыдущие месяцы, начиная с января 2011 года, Вы можете получить, выбрав интересующий диапазон дат из раскрывающегося списка и нажав кнопку "Ввод!".


*Определитесь, кто Вы:
робот инопланетянин человек

Внимание! Время в таблицах - всемирное. Для получения местного времени необходимо прибавить поправку, которая равна 8 ч.

Смотрите также архив погоды в соседних городах и на ближайших метеорологических станциях:

Погода в Калгурли-Боулдере (Западная Австралия, Австралия) (206 км)
Погода в Кандердине (Западная Австралия, Австралия) (207 км)
Погода в Ньюдегейте (Западная Австралия, Австралия) (216 км)
Погода на Озере Грейс (Западная Австралия, Австралия) (224 км)
Погода в Норсмане (Западная Австралия, Австралия) (252 км)
Погода в Дауоллину (Западная Австралия, Австралия) (277 км)
Погода в Мунглинап Запад (Западная Австралия, Австралия) (288 км)
Погода в Салмон Гамс (Западная Австралия, Австралия) (289 км)
Погода в Джакапе (Западная Австралия, Австралия) (296 км)
Погода в Уондеринге (Западная Австралия, Австралия) (299 км)

Пояснения к столбцам:

Ветер - указаны скорость ветра в м/с - средняя за 10 мин, порывы в срок и между сроками (в фигурных скобках) и направление, откуда дует ветер: С - северный, СВ - северо-восточный, В - восточный, ЮВ - юго-восточный, Ю - южный, ЮЗ - юго-западный, З - западный, СЗ - северо-западный.
Видимость - горизонтальная дальность видимости в метрах или километрах. При видимости от 1 до 10 км при отсутствии осадков обычно наблюдается дымка, при ухудшении видимости до 1 км и менее - туман. В сухую погоду видимость может ухудшаться дымом, пылью или мглою.
Явления - указаны атмосферные явления, наблюдавшиеся в срок или в последний час перед сроком; фигурными скобками обозначены явления, наблюдавшиеся между сроками (за 1-3 часа до срока); квадратными скобками обозначены град или гололедные отложения с указанием их диаметра в мм.
Облачность - указаны через наклонную черту общая и нижняя облачность в баллах и высота нижней границы облаков в метрах; квадратными скобками обозначены формы облаков: Ci - перистые, Cs - перисто-слоистые, Cc - перисто-кучевые, Ac - высококучевые, As - высокослоистые, Sc - слоисто-кучевые, Ns - слоисто-дождевые, Cu - кучевые, Cb - кучево-дождевые. Подробнее классификацию облаков см. в Атласе облаков (PDF).
T - Температура воздуха - температура, измеренная на высоте 2 м над землей.
Td - Температура точки росы - температура, при понижении до которой содержащийся в воздухе водяной пар достигнет насыщения.
f - Относительная влажность воздуха - влажноcть воздуха, измеренная на высоте 2 м над землей.
Te - Эффективная температура - температура, которую ощущает одетый по сезону человек в тени. Характеристика душности погоды. При расчете учитывается влияние влажности воздуха и скорости ветра на теплоощущения человека.
Tes - Эффективная температура на солнце - температура, которую ощущает человек, с поправкой на солнечный нагрев. Характеристика знойности погоды. Зависит от высоты солнца над горизонтом, облачности и скорости ветра. Ночью, в пасмурную погоду, а также при ветре 12 м/с и более поправка равна нулю.
P - Атмосферное давление - приведенное к уровню моря атмосферное давление.
Po - Атмосферное давление - измеренное на уровне метеостанции атмосферное давление.
Tmin - Минимальная температура - минимум температуры воздуха на высоте 2 м над землей.
Tmax - Максимальная температура - максимум температуры воздуха на высоте 2 м над землей.
R - Количество осадков - Количество выпавших осадков за период времени, мм. При наведении курсора мыши на число - период времени, за который выпало указанное количество осадков.
R24 - Количество осадков - Количество выпавших осадков за 24 часа, мм.
S - Снежный покров - Высота снежного покрова, см. При наведении курсора мыши на число - состояние снежного покрова и степень покрытия местности в баллах.